1518915600.02,27015,10.0,72948.8,-13.49,-15.11,-15.21,0,*6D
1518915601.26,27016,10.0,72948.8,-13.49,-15.11,-15.15,0,*69
1518915602.5,27017,9.94,72946.8,-13.49,-15.11,-15.07,0,*6B
1518915603.73,27018,9.94,72944.3,-13.47,-15.07,-15.01,0,*6B
1518915604.97,27019,10.0,72948.8,-13.49,-15.11,-15.07,0,*65
1518915606.26,27020,9.94,72944.8,-13.49,-15.21,-14.97,0,*64
1518915607.52,27021,10.0,72948.8,-13.49,-15.11,-14.97,0,*66
1518915608.81,27022,10.0,72948.0,-13.49,-15.21,-14.97,0,*66
1518915610.05,27023,9.94,72948.5,-13.47,-15.07,-15.01,0,*63
1518915611.34,27024,9.94,72944.0,-13.49,-15.35,-15.21,0,*69
1518915612.63,27025,10.0,72946.5,-13.49,-15.35,-15.21,0,*68
1518915613.91,27026,9.94,72946.8,-13.49,-15.21,-15.21,0,*6E
1518915615.17,27027,10.0,72948.5,-13.49,-15.21,-15.11,0,*6C
1518915616.43,27028,10.0,72950.3,-13.49,-15.21,-15.11,0,*63
1518915617.69,27029,10.0,72948.0,-13.49,-15.21,-15.11,0,*62
1518915618.95,27030,9.94,72946.0,-13.49,-15.11,-14.97,0,*66
1518915620.21,27031,10.0,72950.0,-13.55,-15.21,-14.97,0,*69
1518915621.45,27032,9.94,72948.5,-13.53,-15.11,-15.07,0,*67
1518915622.69,27033,9.94,72946.5,-13.47,-15.07,-14.93,0,*68
1518915623.95,27034,10.0,72948.0,-13.49,-15.07,-14.97,0,*65
1518915625.22,27035,10.0,72950.0,-13.49,-15.11,-14.97,0,*63
1518915626.48,27036,9.94,72950.0,-13.53,-15.07,-14.97,0,*6C
1518915627.74,27037,10.0,72948.8,-13.47,-15.01,-15.01,0,*60
1518915628.98,27038,10.0,72950.5,-13.49,-15.07,-15.07,0,*61
1518915630.24,27039,10.0,72952.0,-13.49,-15.07,-14.97,0,*68
1518915631.5,27040,10.0,72948.3,-13.53,-15.21,-15.07,0,*61
1518915632.74,27041,10.0,72948.0,-13.49,-15.11,-15.07,0,*68
1518915634.0,27042,10.0,72948.8,-13.53,-15.11,-14.97,0,*68
1518915635.24,27043,10.0,72946.0,-13.53,-15.11,-15.07,0,*61
1518915636.5,27044,10.0,72948.8,-13.53,-15.21,-15.11,0,*62
1518915637.73,27045,10.0,72950.0,-13.53,-15.11,-15.11,0,*60
1518915639.0,27046,10.0,72948.8,-13.53,-15.11,-15.21,0,*60
1518915640.23,27047,10.0,72948.0,-13.53,-15.11,-15.11,0,*62
1518915641.49,27048,9.94,72944.3,-13.53,-15.21,-15.11,0,*6E
1518915642.73,27049,10.0,72948.5,-13.53,-15.11,-15.11,0,*6C
1518915643.96,27050,9.94,72944.8,-13.53,-15.11,-15.07,0,*63
1518915645.25,27051,9.94,72946.5,-13.53,-15.21,-15.21,0,*65
1518915646.48,27052,10.0,72950.0,-13.53,-15.11,-15.11,0,*66
1518915647.74,27053,10.0,72948.0,-13.53,-15.21,-15.11,0,*64
1518915649.0,27054,10.0,72948.3,-13.53,-15.11,-15.21,0,*63
1518915650.26,27055,9.94,72946.8,-13.53,-15.11,-15.21,0,*62
1518915651.5,27056,10.0,72948.5,-13.53,-15.11,-15.11,0,*62
1518915652.76,27057,10.0,72948.8,-13.53,-15.11,-15.21,0,*60
1518915654.04,27058,10.0,72952.0,-13.53,-15.21,-15.21,0,*6C
1518915655.27,27059,10.0,72950.8,-13.55,-15.15,-15.25,0,*68
1518915656.52,27060,10.0,72950.8,-13.53,-15.21,-15.11,0,*64
1518915657.74,27061,10.0,72948.8,-13.55,-15.25,-15.15,0,*63
1518915659.0,27062,10.0,72952.3,-13.53,-15.21,-15.11,0,*66
1518915660.24,27063,10.0,72948.8,-13.53,-15.11,-15.11,0,*64
1518915661.5,27064,9.94,72944.3,-13.53,-15.21,-15.11,0,*60
1518915662.76,27065,10.0,72950.0,-13.53,-15.21,-15.07,0,*66
1518915663.99,27066,9.94,72948.8,-13.53,-15.11,-15.07,0,*66
1518915665.23,27067,10.0,72948.8,-13.53,-15.11,-15.07,0,*67
1518915666.49,27068,10.0,72948.3,-13.53,-15.21,-15.07,0,*6B
1518915667.75,27069,9.94,72948.8,-13.53,-15.21,-15.11,0,*6D
1518915668.98,27070,10.0,72950.8,-13.53,-15.11,-15.11,0,*66
1518915670.22,27071,10.0,72948.3,-13.53,-15.11,-15.11,0,*67
1518915671.46,27072,10.0,72948.8,-13.53,-15.11,-15.07,0,*63
1518915672.69,27073,10.0,72950.0,-13.49,-15.11,-15.11,0,*6E
1518915673.95,27074,9.94,72948.3,-13.53,-15.11,-14.97,0,*6D
1518915675.21,27075,10.0,72950.0,-13.53,-15.21,-15.07,0,*67
1518915676.45,27076,10.0,72946.8,-13.53,-15.11,-15.07,0,*67
1518915677.69,27077,10.0,72948.0,-13.53,-15.11,-15.11,0,*61
1518915678.92,27078,10.0,72950.0,-13.53,-15.11,-15.07,0,*69
1518915680.18,27079,10.0,72948.5,-13.53,-15.21,-15.11,0,*6C
1518915681.44,27080,10.0,72954.8,-13.53,-15.21,-15.11,0,*6A
1518915682.68,27081,9.94,72948.0,-13.49,-15.11,-15.11,0,*63
1518915683.94,27082,10.0,72950.5,-13.49,-15.11,-14.97,0,*6F
1518915685.21,27083,9.94,72946.3,-13.49,-15.11,-14.97,0,*6E
1518915686.49,27084,10.0,72950.0,-13.49,-15.21,-15.21,0,*66
1518915687.73,27085,9.94,72946.0,-13.53,-15.25,-15.11,0,*6B
1518915688.99,27086,9.94,72946.5,-13.53,-15.21,-15.11,0,*6C
1518915690.23,27087,10.0,72948.0,-13.53,-15.11,-15.07,0,*69
1518915691.46,27088,10.0,72950.3,-13.55,-15.11,-14.97,0,*68
1518915692.75,27089,9.94,72950.3,-13.53,-15.21,-14.97,0,*6C
1518915694.01,27090,9.94,72948.5,-13.53,-15.11,-15.21,0,*6B
1518915695.27,27091,10.0,72950.0,-13.53,-15.21,-15.07,0,*6D
1518915696.53,27092,10.0,72952.0,-13.55,-15.21,-15.21,0,*6C
1518915697.79,27093,10.0,72948.8,-13.53,-15.21,-15.25,0,*6F
1518915699.09,27094,10.0,72948.0,-13.53,-15.39,-15.35,0,*60
1518915700.38,27095,9.94,72944.5,-13.53,-15.43,-15.43,0,*6D
1518915701.65,27096,10.0,72944.8,-13.55,-15.43,-15.39,0,*65
1518915702.88,27097,10.0,72940.8,-13.55,-15.29,-15.29,0,*69
1518915704.14,27098,10.0,72940.3,-13.53,-15.25,-15.21,0,*64
1518915705.38,27099,10.0,72940.8,-13.53,-15.11,-15.11,0,*61
1518915706.6,27100,10.0,72944.5,-13.55,-15.25,-15.25,0,*66
1518915707.82,27101,10.0,72948.8,-13.55,-15.29,-15.15,0,*68
1518915709.04,27102,9.94,72944.3,-13.55,-15.25,-15.25,0,*64
1518915710.33,27103,10.0,72950.3,-13.53,-15.21,-15.21,0,*63
1518915711.61,27104,10.0,72950.0,-13.53,-15.21,-15.21,0,*64
1518915712.85,27105,9.94,72944.8,-13.55,-15.21,-15.25,0,*67
1518915714.07,27106,9.94,72944.8,-13.55,-15.25,-15.25,0,*60
1518915715.29,27107,10.0,72950.3,-13.55,-15.15,-15.25,0,*62
1518915716.56,27108,10.0,72950.0,-13.53,-15.21,-15.11,0,*6B
1518915717.77,27109,9.94,72950.0,-13.55,-15.15,-15.15,0,*6F
1518915718.99,27110,9.94,72950.3,-13.55,-15.15,-15.11,0,*63
1518915720.27,27111,10.0,72952.5,-13.53,-15.21,-14.97,0,*6C
1518915721.49,27112,10.0,72952.8,-13.55,-15.15,-15.15,0,*65
1518915722.7,27113,10.0,72952.3,-13.55,-15.15,-15.15,0,*64
1518915723.92,27114,10.0,72950.5,-13.55,-15.15,-15.15,0,*63
1518915725.14,27115,10.0,72950.0,-13.55,-15.25,-15.25,0,*62
1518915726.36,27116,10.0,72954.0,-13.55,-15.25,-15.15,0,*62
1518915727.58,27117,9.94,72950.5,-13.55,-15.25,-15.15,0,*63
1518915728.79,27118,9.94,72950.0,-13.55,-15.15,-15.15,0,*6F
1518915730.02,27119,9.94,72948.5,-13.55,-15.15,-15.25,0,*6D
1518915731.23,27120,10.0,72954.3,-13.55,-15.25,-15.15,0,*67
1518915732.45,27121,10.0,72954.0,-13.55,-15.25,-15.15,0,*66
1518915733.71,27122,10.0,72954.5,-13.53,-15.11,-14.97,0,*6F
1518915734.93,27123,9.94,72950.0,-13.55,-15.25,-15.15,0,*64
1518915736.17,27124,10.0,72950.3,-13.53,-15.11,-15.11,0,*66
1518915737.4,27125,10.0,72950.5,-13.55,-15.21,-15.11,0,*62
1518915738.62,27126,10.0,72948.8,-13.55,-15.25,-15.25,0,*62
1518915739.87,27127,10.0,72950.0,-13.55,-15.39,-15.25,0,*6E
1518915741.12,27128,10.0,72948.3,-13.55,-15.39,-15.25,0,*61
1518915742.34,27129,10.0,72948.3,-13.55,-15.29,-15.25,0,*61
1518915743.56,27130,10.0,72950.3,-13.55,-15.29,-15.15,0,*6A
1518915744.8,27131,9.94,72946.0,-13.55,-15.29,-15.39,0,*65
1518915746.05,27132,10.0,72946.5,-13.55,-15.39,-15.29,0,*66
1518915747.27,27133,10.0,72948.3,-13.55,-15.29,-15.29,0,*66
1518915748.5,27134,9.94,72946.5,-13.55,-15.29,-15.29,0,*61
1518915749.76,27135,9.94,72946.0,-13.57,-15.29,-15.29,0,*62
1518915750.98,27136,10.0,72948.3,-13.55,-15.29,-15.25,0,*6F
1518915752.25,27137,10.0,72948.3,-13.55,-15.43,-15.43,0,*62
1518915753.55,27138,9.94,72944.0,-13.57,-15.57,-15.43,0,*6A
1518915754.77,27139,9.94,72942.3,-13.59,-15.49,-15.49,0,*60
1518915756.05,27140,10.0,72946.3,-13.57,-15.43,-15.29,0,*6C
1518915757.31,27141,10.0,72946.3,-13.57,-15.29,-15.25,0,*6D
1518915758.57,27142,10.0,72942.8,-13.57,-15.29,-15.25,0,*6E
1518915759.83,27143,10.0,72944.3,-13.57,-15.29,-15.25,0,*6F
1518915761.05,27144,9.94,72940.8,-13.59,-15.25,-15.25,0,*6A
1518915762.31,27145,10.0,72946.8,-13.57,-15.25,-15.25,0,*65
1518915763.56,27146,9.94,72942.3,-13.57,-15.29,-15.15,0,*69
1518915764.81,27147,9.94,72940.0,-13.57,-15.29,-15.15,0,*68
1518915766.06,27148,9.94,72944.5,-13.57,-15.25,-15.15,0,*6B
1518915767.31,27149,10.0,72948.0,-13.57,-15.25,-15.15,0,*6A
1518915768.57,27150,10.0,72950.0,-13.57,-15.25,-15.25,0,*61
1518915769.83,27151,10.0,72950.0,-13.57,-15.29,-15.25,0,*6C
1518915771.08,27152,10.0,72948.8,-13.57,-15.29,-15.15,0,*6C
1518915772.33,27153,10.0,72950.8,-13.57,-15.29,-15.25,0,*6E
1518915773.59,27154,10.0,72948.0,-13.57,-15.25,-15.25,0,*65
1518915774.83,27155,10.0,72950.8,-13.59,-15.29,-15.21,0,*62
1518915776.09,27156,10.0,72950.0,-13.57,-15.25,-15.15,0,*64
1518915777.34,27157,9.94,72948.0,-13.57,-15.25,-15.25,0,*66
1518915778.59,27158,10.0,72948.3,-13.59,-15.29,-15.21,0,*6F
1518915779.84,27159,10.0,72950.8,-13.57,-15.15,-15.15,0,*68
1518915781.09,27160,10.0,72950.8,-13.57,-15.25,-15.15,0,*61
1518915782.34,27161,10.0,72952.3,-13.57,-15.25,-15.15,0,*60
1518915783.58,27162,10.0,72950.8,-13.57,-15.15,-15.15,0,*60
1518915784.85,27163,10.0,72950.8,-13.59,-15.21,-15.21,0,*6F
1518915786.12,27164,10.0,72948.5,-13.57,-15.15,-15.01,0,*63
1518915787.38,27165,10.0,72948.8,-13.57,-15.11,-15.01,0,*66
1518915788.66,27166,10.0,72952.0,-13.57,-15.15,-15.01,0,*61
1518915789.92,27167,10.0,72948.0,-13.57,-15.11,-15.01,0,*64
1518915791.2,27168,10.0,72948.8,-13.57,-15.15,-15.01,0,*6F
1518915792.44,27169,10.0,72950.5,-13.57,-15.15,-15.11,0,*6F
1518915793.68,27170,10.0,72950.5,-13.55,-15.15,-15.01,0,*64
1518915794.95,27171,10.0,72948.8,-13.53,-15.11,-14.97,0,*69
1518915796.16,27172,10.0,72950.3,-13.55,-15.15,-15.11,0,*67
1518915797.41,27173,10.0,72952.3,-13.57,-15.15,-15.11,0,*64
1518915798.65,27174,10.0,72952.3,-13.59,-15.21,-15.15,0,*6E
1518915799.92,27175,10.0,72948.3,-13.57,-15.15,-15.01,0,*63
1518915801.19,27176,10.0,72950.0,-13.57,-15.15,-15.01,0,*60
1518915802.44,27177,9.94,72946.3,-13.57,-15.15,-15.11,0,*60
1518915803.71,27178,10.0,72950.5,-13.57,-15.11,-15.01,0,*6A
1518915804.92,27179,10.0,72950.0,-13.55,-15.15,-15.11,0,*6C
1518915806.14,27180,10.0,72948.5,-13.55,-15.15,-15.11,0,*6A
1518915807.37,27181,9.94,72950.3,-13.55,-15.11,-15.01,0,*6E
1518915808.58,27182,10.0,72950.0,-13.55,-15.11,-15.11,0,*6C
1518915809.81,27183,10.0,72948.5,-13.55,-15.11,-15.01,0,*6C
1518915811.08,27184,10.0,72950.8,-13.53,-15.07,-14.97,0,*64
1518915812.34,27185,9.94,72948.0,-13.55,-15.01,-14.97,0,*65
1518915813.57,27186,10.0,72950.8,-13.55,-15.11,-15.01,0,*69
1518915814.8,27187,10.0,72948.5,-13.55,-15.11,-14.97,0,*66
1518915816.04,27188,10.0,72948.0,-13.55,-15.01,-14.89,0,*67
1518915817.28,27189,10.0,72950.0,-13.55,-15.11,-14.97,0,*68
1518915818.56,27190,9.94,72944.5,-13.53,-14.97,-14.83,0,*6C
1518915819.79,27191,9.94,72946.0,-13.55,-15.01,-14.89,0,*6F
1518915821.08,27192,10.0,72950.8,-13.53,-14.97,-14.93,0,*6F
1518915822.31,27193,10.0,72950.0,-13.55,-15.11,-14.97,0,*63
1518915823.58,27194,10.0,72950.0,-13.57,-15.11,-15.01,0,*68
1518915824.82,27195,9.94,72946.5,-13.57,-15.11,-15.11,0,*68
1518915826.09,27196,9.94,72946.8,-13.57,-15.11,-15.01,0,*6A
1518915827.36,27197,9.94,72948.3,-13.57,-15.01,-14.89,0,*6B
1518915828.65,27198,9.94,72948.5,-13.57,-15.01,-15.01,0,*65
1518915829.94,27199,9.94,72944.5,-13.57,-14.97,-14.97,0,*64
1518915831.21,27200,9.94,72944.0,-13.57,-15.11,-14.97,0,*68
1518915832.47,27201,10.0,72948.8,-13.55,-15.01,-14.97,0,*6A
1518915833.76,27202,9.94,72946.3,-13.57,-15.01,-14.97,0,*6B
1518915835.03,27203,10.0,72950.5,-13.57,-14.97,-14.89,0,*6B
1518915836.3,27204,10.0,72952.0,-13.57,-15.01,-14.89,0,*62
1518915837.59,27205,9.94,72950.3,-13.57,-14.97,-14.97,0,*62
1518915838.86,27206,9.94,72950.3,-13.57,-15.01,-14.89,0,*60
1518915840.15,27207,9.94,72946.3,-13.57,-15.01,-14.97,0,*6E
1518915841.41,27208,9.94,72948.0,-13.53,-15.21,-15.07,0,*6F
1518915842.64,27209,10.0,72950.5,-13.55,-15.11,-14.97,0,*63
1518915843.86,27210,10.0,72948.0,-13.55,-15.11,-14.89,0,*64
1518915845.09,27211,10.0,72948.8,-13.55,-15.11,-14.97,0,*6A
1518915846.35,27212,9.94,72950.8,-13.55,-14.97,-14.97,0,*66
1518915847.61,27213,9.94,72948.8,-13.55,-14.97,-14.93,0,*63
1518915848.84,27214,10.0,72948.0,-13.55,-14.97,-14.89,0,*6F
1518915850.1,27215,10.0,72950.0,-13.55,-14.97,-14.83,0,*64
1518915851.39,27216,10.0,72948.5,-13.53,-14.93,-14.83,0,*65
1518915852.62,27217,10.0,72954.5,-13.55,-15.01,-14.89,0,*62
1518915853.88,27218,10.0,72954.5,-13.55,-15.01,-14.83,0,*67
1518915855.14,27219,9.94,72948.0,-13.55,-14.97,-14.97,0,*6D
1518915856.38,27220,9.94,72950.5,-13.55,-14.97,-14.89,0,*68
1518915857.61,27221,10.0,72952.8,-13.55,-14.97,-14.89,0,*69
1518915858.9,27222,9.94,72948.0,-13.57,-14.97,-14.83,0,*62
1518915860.16,27223,10.0,72950.5,-13.55,-14.97,-14.83,0,*61
1518915861.42,27224,10.0,72952.0,-13.55,-14.97,-14.83,0,*66
1518915862.64,27225,10.0,72950.3,-13.55,-14.89,-14.89,0,*62
1518915863.9,27226,10.0,72952.8,-13.53,-14.79,-14.69,0,*66
1518915865.17,27227,10.0,72952.8,-13.55,-14.83,-14.79,0,*65
1518915866.4,27228,10.0,72952.0,-13.55,-14.97,-14.89,0,*60
1518915867.64,27229,9.94,72950.8,-13.55,-14.89,-14.75,0,*6D
1518915868.88,27230,10.0,72950.8,-13.55,-14.89,-14.75,0,*65
1518915870.11,27231,10.0,72948.8,-13.55,-14.83,-14.69,0,*63
1518915871.35,27232,10.0,72950.5,-13.55,-14.75,-14.69,0,*69
1518915872.61,27233,10.0,72948.5,-13.53,-14.79,-14.69,0,*62
1518915873.85,27234,10.0,72954.0,-13.55,-14.89,-14.83,0,*68
1518915875.14,27235,10.0,72952.8,-13.53,-14.79,-14.79,0,*65
1518915876.4,27236,9.94,72950.5,-13.55,-14.97,-14.83,0,*65
1518915877.64,27237,10.0,72954.8,-13.55,-14.89,-14.75,0,*62
1518915878.87,27238,10.0,72952.0,-13.55,-14.79,-14.69,0,*6F
1518915880.14,27239,10.0,72948.8,-13.55,-14.83,-14.83,0,*6F
1518915881.4,27240,10.0,72952.3,-13.55,-14.75,-14.75,0,*61
1518915882.66,27241,10.0,72954.8,-13.55,-14.83,-14.75,0,*69
1518915883.92,27242,10.0,72952.3,-13.53,-14.69,-14.75,0,*68
1518915885.21,27243,10.0,72950.3,-13.53,-14.79,-14.79,0,*64
1518915886.47,27244,9.94,72950.8,-13.53,-14.79,-14.69,0,*62
1518915887.71,27245,9.94,72950.5,-13.55,-14.89,-14.83,0,*6E
1518915888.98,27246,10.0,72950.3,-13.55,-14.83,-14.75,0,*6E
1518915890.22,27247,10.0,72954.3,-13.55,-14.89,-14.83,0,*6C
1518915891.51,27248,9.94,72952.8,-13.53,-14.93,-14.83,0,*6E
1518915892.74,27249,10.0,72954.3,-13.55,-15.11,-15.01,0,*69
1518915894.01,27250,9.94,72950.0,-13.53,-15.07,-14.97,0,*6E
1518915895.27,27251,10.0,72948.0,-13.53,-15.21,-15.11,0,*64
1518915896.49,27252,9.94,72944.5,-13.55,-15.29,-15.25,0,*6E
1518915897.74,27253,10.0,72944.5,-13.55,-15.39,-15.29,0,*62
1518915898.98,27254,10.0,72942.8,-13.55,-15.49,-15.43,0,*6E
1518915900.25,27255,10.0,72940.3,-13.55,-15.43,-15.43,0,*65
1518915901.47,27256,10.0,72940.3,-13.55,-15.29,-15.29,0,*66
1518915902.73,27257,9.94,72942.3,-13.57,-15.25,-15.25,0,*65
1518915903.98,27258,10.0,72942.3,-13.57,-15.15,-15.15,0,*6A
1518915905.24,27259,10.0,72946.0,-13.57,-15.01,-15.11,0,*6A
1518915906.46,27260,9.94,72944.0,-13.59,-15.15,-15.07,0,*6C
1518915907.75,27261,10.0,72944.3,-13.57,-15.01,-15.01,0,*60
1518915909.04,27262,9.94,72940.3,-13.57,-15.01,-14.97,0,*6D
1518915910.31,27263,10.0,72946.3,-13.57,-14.97,-14.89,0,*6D
1518915911.58,27264,9.94,72944.8,-13.57,-14.97,-14.89,0,*6A
1518915912.87,27265,9.94,72946.0,-13.57,-15.01,-15.01,0,*64
1518915914.16,27266,10.0,72948.0,-13.57,-15.01,-14.97,0,*69
1518915915.45,27267,10.0,72948.5,-13.57,-14.97,-14.97,0,*66
1518915916.72,27268,9.94,72946.8,-13.57,-15.11,-15.01,0,*68
1518915917.97,27269,10.0,72948.5,-13.57,-15.15,-15.15,0,*68
1518915919.22,27270,9.94,72944.8,-13.57,-15.15,-15.11,0,*64
1518915920.49,27271,9.94,72944.8,-13.57,-15.11,-14.97,0,*6E
1518915921.78,27272,10.0,72948.3,-13.57,-15.01,-15.01,0,*62
1518915923.03,27273,10.0,72950.3,-13.57,-15.15,-15.11,0,*67
1518915924.28,27274,10.0,72948.3,-13.57,-15.25,-15.25,0,*64
1518915925.53,27275,10.0,72946.8,-13.57,-15.15,-15.15,0,*65
1518915926.78,27276,10.0,72946.8,-13.57,-15.15,-15.11,0,*62
1518915928.01,27277,10.0,72952.5,-13.59,-15.29,-15.29,0,*69
1518915929.23,27278,10.0,72948.8,-13.59,-15.29,-15.15,0,*69
1518915930.45,27279,9.94,72946.8,-13.59,-15.29,-15.15,0,*68
1518915931.7,27280,10.0,72948.8,-13.57,-15.15,-15.11,0,*6B
1518915932.92,27281,10.0,72954.3,-13.59,-15.15,-15.15,0,*60
1518915934.19,27282,9.94,72944.3,-13.57,-15.15,-15.01,0,*68
1518915935.43,27283,9.94,72942.8,-13.59,-15.21,-15.07,0,*66
1518915936.72,27284,10.0,72946.5,-13.57,-15.01,-14.97,0,*65
1518915937.99,27285,10.0,72946.5,-13.57,-15.01,-14.89,0,*6B
1518915939.28,27286,9.94,72942.8,-13.57,-15.01,-14.97,0,*67
1518915940.54,27287,10.0,72952.0,-13.59,-15.01,-14.97,0,*68
1518915941.79,27288,9.94,72944.5,-13.59,-15.15,-14.93,0,*66
1518915943.08,27289,10.0,72948.3,-13.57,-15.01,-14.97,0,*68
1518915944.29,27290,9.94,72946.3,-13.59,-15.07,-15.07,0,*60
1518915945.59,27291,10.0,72950.8,-13.57,-15.01,-14.97,0,*61
1518915946.82,27292,9.94,72946.5,-13.59,-15.07,-15.01,0,*64
1518915948.06,27293,9.94,72944.5,-13.59,-15.07,-15.01,0,*65
1518915949.3,27294,10.0,72950.0,-13.59,-15.07,-14.93,0,*68
1518915950.59,27295,10.0,72950.8,-13.57,-15.01,-14.97,0,*65
1518915951.84,27296,10.0,72944.3,-13.59,-15.15,-15.01,0,*63
1518915953.11,27297,9.94,72944.5,-13.57,-15.01,-14.89,0,*68
1518915954.4,27298,10.0,72948.5,-13.57,-15.01,-14.97,0,*68
1518915955.67,27299,9.94,72944.3,-13.57,-15.11,-14.97,0,*68
1518915956.91,27300,9.94,72944.3,-13.59,-15.07,-14.93,0,*64
1518915958.14,27301,9.94,72946.3,-13.59,-15.07,-15.01,0,*6F
1518915959.44,27302,10.0,72948.0,-13.57,-15.01,-14.97,0,*6A
1518915960.7,27303,9.94,72946.3,-13.59,-15.01,-14.97,0,*65
1518915961.99,27304,10.0,72946.8,-13.57,-14.97,-14.97,0,*62
1518915963.28,27305,9.94,72944.0,-13.57,-15.01,-14.97,0,*6D
1518915964.52,27306,9.94,72944.8,-13.59,-15.07,-14.93,0,*62
1518915965.77,27307,10.0,72948.0,-13.57,-14.89,-14.89,0,*61
1518915967.04,27308,10.0,72950.8,-13.57,-15.01,-14.89,0,*6F
1518915968.31,27309,10.0,72950.8,-13.57,-15.01,-14.89,0,*6E
1518915969.55,27310,9.94,72948.0,-13.57,-15.11,-14.89,0,*67
1518915970.82,27311,10.0,72948.3,-13.57,-15.01,-14.89,0,*67
1518915972.09,27312,10.0,72948.8,-13.57,-15.01,-14.89,0,*64
1518915973.38,27313,10.0,72948.3,-13.57,-14.97,-14.83,0,*61
1518915974.65,27314,10.0,72948.3,-13.57,-14.89,-14.83,0,*69
1518915975.93,27315,10.0,72950.3,-13.57,-14.89,-14.75,0,*61
1518915977.18,27316,9.94,72944.5,-13.57,-14.89,-14.89,0,*61
1518915978.47,27317,9.94,72946.8,-13.57,-14.97,-14.97,0,*60
1518915979.76,27318,10.0,72950.8,-13.57,-15.01,-14.97,0,*61
1518915981.03,27319,10.0,72950.0,-13.57,-15.11,-15.01,0,*6F
1518915982.3,27320,10.0,72948.8,-13.57,-15.15,-15.01,0,*61
1518915983.59,27321,10.0,72950.8,-13.57,-15.01,-14.97,0,*6B
1518915984.86,27322,9.94,72946.5,-13.57,-15.15,-15.01,0,*63
1518915986.08,27323,10.0,72948.3,-13.59,-15.07,-15.07,0,*69
1518915987.34,27324,9.94,72950.0,-13.57,-15.11,-15.01,0,*61
1518915988.61,27325,10.0,72950.8,-13.57,-15.11,-14.97,0,*6E
1518915989.87,27326,10.0,72950.0,-13.59,-15.01,-14.93,0,*66
1518915991.17,27327,10.0,72946.8,-13.57,-15.01,-14.97,0,*6D
1518915992.45,27328,10.0,72948.3,-13.57,-15.01,-15.01,0,*6C
1518915993.73,27329,10.0,72950.0,-13.57,-15.15,-15.01,0,*68
1518915995.01,27330,10.0,72950.0,-13.57,-15.01,-15.01,0,*65
1518915996.31,27331,9.94,72950.0,-13.57,-15.01,-14.97,0,*6A
1518915997.6,27332,10.0,72948.3,-13.57,-15.01,-14.97,0,*69
1518915998.89,27333,10.0,72946.8,-13.57,-15.01,-14.97,0,*68
1518916000.18,27334,10.0,72944.5,-13.57,-14.97,-14.97,0,*61
1518916001.45,27335,9.94,72942.8,-13.59,-14.97,-14.83,0,*6B
1518916002.71,27336,9.94,72944.8,-13.59,-15.01,-14.93,0,*67
1518916003.94,27337,9.94,72940.3,-13.59,-15.01,-14.89,0,*6D
1518916005.24,27338,10.0,72942.8,-13.57,-14.97,-14.83,0,*68
1518916006.53,27339,10.0,72940.8,-13.57,-15.01,-14.97,0,*62
1518916007.8,27340,10.0,72944.0,-13.57,-15.01,-14.89,0,*63
1518916009.07,27341,10.0,72948.0,-13.57,-15.07,-14.97,0,*6B
1518916010.31,27342,10.0,72944.5,-13.59,-15.29,-15.21,0,*66
1518916011.56,27343,10.0,72944.0,-13.57,-15.15,-15.11,0,*65
1518916012.8,27344,10.0,72942.8,-13.59,-15.21,-15.15,0,*6F
1518916014.03,27345,10.0,72942.0,-13.59,-15.21,-15.07,0,*6D
1518916015.27,27346,10.0,72938.8,-13.59,-15.07,-14.93,0,*66
1518916016.51,27347,10.0,72936.3,-13.59,-15.07,-15.01,0,*6D
1518916017.76,27348,10.0,72940.8,-13.59,-15.15,-15.01,0,*61
1518916019.02,27349,9.94,72944.8,-13.57,-15.11,-15.01,0,*6A
1518916020.26,27350,10.0,72944.0,-13.59,-15.07,-14.93,0,*61
1518916021.53,27351,10.0,72944.0,-13.57,-15.11,-15.01,0,*63
1518916022.82,27352,9.94,72946.5,-13.57,-15.01,-14.93,0,*6B
1518916024.09,27353,10.0,72946.8,-13.57,-15.11,-14.97,0,*6F
1518916025.3,27354,9.94,72942.8,-13.59,-15.07,-15.15,0,*6A
1518916026.54,27355,10.0,72942.0,-13.59,-15.07,-15.01,0,*6E
1518916027.81,27356,10.0,72942.8,-13.57,-15.01,-14.89,0,*64
1518916029.06,27357,9.94,72940.0,-13.57,-14.89,-14.89,0,*64
1518916030.32,27358,10.0,72942.0,-13.59,-15.01,-15.01,0,*65
1518916031.58,27359,9.94,72936.8,-13.59,-14.93,-15.01,0,*6E
1518916032.85,27360,10.0,72940.5,-13.57,-14.97,-14.89,0,*6F
1518916034.14,27361,10.0,72940.8,-13.57,-14.97,-14.97,0,*61
1518916035.4,27362,9.94,72938.5,-13.59,-15.01,-15.01,0,*6C
1518916036.64,27363,10.0,72944.0,-13.59,-15.07,-15.01,0,*6B
1518916037.88,27364,9.94,72942.5,-13.59,-15.07,-15.01,0,*6C
1518916039.14,27365,9.94,72942.0,-13.59,-15.01,-14.97,0,*65
1518916040.41,27366,10.0,72940.8,-13.57,-15.11,-14.97,0,*69
1518916041.65,27367,9.94,72938.3,-13.57,-15.11,-15.11,0,*67
1518916042.89,27368,9.94,72938.8,-13.59,-15.07,-15.01,0,*60
1518916044.13,27369,10.0,72940.8,-13.59,-15.07,-15.01,0,*61
1518916045.42,27370,9.94,72938.5,-13.57,-15.01,-14.97,0,*6F
1518916046.69,27371,9.94,72936.3,-13.57,-15.11,-14.97,0,*6F
1518916047.93,27372,9.94,72936.3,-13.59,-15.15,-15.01,0,*68
1518916049.2,27373,10.0,72938.8,-13.57,-15.11,-15.01,0,*63
1518916050.47,27374,10.0,72936.0,-13.57,-15.11,-14.97,0,*6A
1518916051.74,27375,10.0,72936.5,-13.57,-15.11,-15.01,0,*65
1518916052.97,27376,9.94,72932.3,-13.59,-15.21,-15.07,0,*6D
1518916054.21,27377,10.0,72938.8,-13.59,-15.21,-15.07,0,*6C
1518916055.45,27378,10.0,72938.8,-13.59,-15.21,-15.29,0,*6F
1518916056.72,27379,10.0,72938.3,-13.59,-15.35,-15.21,0,*63
1518916057.96,27380,10.0,72940.5,-13.59,-15.21,-15.15,0,*67
1518916059.18,27381,10.0,72944.3,-13.59,-15.29,-15.15,0,*6E
1518916060.43,27382,10.0,72940.8,-13.57,-15.15,-15.11,0,*68
1518916061.67,27383,10.0,72942.5,-13.59,-15.21,-15.15,0,*64
1518916062.88,27384,10.0,72942.5,-13.59,-15.15,-15.07,0,*67
1518916064.15,27385,9.94,72938.8,-13.57,-15.07,-15.01,0,*6D
1518916065.38,27386,10.0,72942.3,-13.59,-15.29,-15.29,0,*66
1518916066.65,27387,10.0,72936.8,-13.59,-15.35,-15.21,0,*62
1518916067.87,27388,10.0,72940.5,-13.59,-15.29,-15.15,0,*67
1518916069.11,27389,10.0,72942.8,-13.59,-15.21,-15.15,0,*6E
1518916070.33,27390,9.94,72936.0,-13.59,-15.29,-15.29,0,*61
1518916071.57,27391,10.0,72936.3,-13.59,-15.21,-15.15,0,*67
1518916072.79,27392,10.0,72936.5,-13.59,-15.15,-15.15,0,*63
1518916074.01,27393,9.94,72938.0,-13.59,-15.07,-15.07,0,*62
1518916075.22,27394,10.0,72942.8,-13.59,-15.15,-15.07,0,*66
1518916076.44,27395,9.94,72940.0,-13.59,-15.07,-15.07,0,*64
1518916077.68,27396,9.94,72940.5,-13.59,-15.21,-15.15,0,*60
1518916078.94,27397,9.94,72938.0,-13.59,-15.21,-15.21,0,*66
1518916080.16,27398,10.0,72940.3,-13.59,-15.15,-15.07,0,*6A
1518916081.4,27399,10.0,72938.8,-13.59,-15.07,-14.93,0,*64
1518916082.62,27400,10.0,72940.5,-13.59,-15.15,-15.07,0,*6C
1518916083.83,27401,10.0,72942.5,-13.59,-15.07,-15.07,0,*6E
1518916085.12,27402,9.94,72940.0,-13.57,-14.97,-14.97,0,*63
1518916086.38,27403,9.94,72942.3,-13.59,-15.01,-15.01,0,*6C
1518916087.64,27404,10.0,72942.8,-13.59,-15.01,-15.01,0,*6B
1518916088.89,27405,10.0,72942.3,-13.61,-15.15,-15.07,0,*62
1518916090.12,27406,10.0,72940.8,-13.59,-15.07,-15.01,0,*6F
1518916091.36,27407,10.0,72944.5,-13.59,-15.07,-15.01,0,*6E
1518916092.62,27408,10.0,72944.5,-13.61,-15.07,-15.01,0,*6A
1518916093.87,27409,9.94,72944.5,-13.61,-15.15,-15.15,0,*6D
1518916095.13,27410,9.94,72946.8,-13.61,-15.07,-15.01,0,*63
1518916096.37,27411,10.0,72948.3,-13.61,-15.15,-15.07,0,*67
1518916097.63,27412,9.94,72942.8,-13.61,-15.21,-15.15,0,*60
1518916098.88,27413,9.94,72942.8,-13.61,-15.15,-15.07,0,*65
1518916100.12,27414,9.94,72940.8,-13.61,-15.15,-15.07,0,*62